Location: Killam
(52.7910°N, 111.8608°W)
Time: 09:30:48
(UTC+00:00)

FENGYUN 1C DEB - Pass Details

Date: 01 June 2024
Orbit: 795 x 992 km, 98.4° (Epoch: 16 June)

Event Time Altitude Azimuth Distance (km) Brightness Sun altitude
Rises 05:56:07 0° 15° (NNE) 3,333 ? -12.6°
Reaches altitude 10° 05:58:26 10° 17° (NNE) 2,412 ? -12.7°
Maximum altitude 06:03:46 79° 104° (ESE) 855 ? -13.0°
Enters shadow 06:08:34 14° 191° (SSW) 2,213 ? -13.2°
